Weather in Lodz

2110 UTC 16 October 2018 EPLL 162100Z 09004KT 9000 NSC 11/07 Q1022

Where pilots are born

  • Michele from Italy

    „The best”

  • Maciej from UK

    “Great place, good aircrafts and amazing atmosphere!!!”

  • Alan from Ireland

    “Fantastic flight school . Fleet of aircraft are exceptional . Instructors are second to none . I couldn't speak any higher...

22000+

Operations per year

1500+

Number of trained pilots

55+

Nationality students

How to join the training?